period_start,C,m1,H,J0,J1,J2,J3,J4,J5,JA,JB,JC,JD,JJ,JK,JN,#
2014-06-27 00:04:26,0.00,0.22,0.00,22.74,26.72,29.42,9.52,38.81,1004.67,2043.03,3380.26,3273.06,3555.97,500.10,491.38,34.53,0000 0000 0000 0000 000000
2014-06-27 00:09:28,0.00,0.22,0.00,22.80,26.72,29.37,9.48,38.77,1004.48,2043.03,3380.17,3273.04,3555.94,500.09,491.17,34.57,0000 0000 0000 0000 000000
2014-06-27 00:14:29,0.00,0.22,0.00,22.86,26.72,29.37,9.43,38.52,1004.51,2043.06,3380.18,3273.05,3555.95,499.93,490.99,34.62,0000 0000 0000 0000 000000
2014-06-27 00:19:30,0.00,0.22,0.00,22.89,26.73,29.42,9.46,38.52,1004.54,2043.05,3380.13,3273.07,3555.96,500.14,491.24,34.66,0000 0000 0000 0000 000000
2014-06-27 00:24:31,0.00,0.22,0.00,22.87,26.74,29.46,9.48,38.67,1004.48,2043.03,3380.04,3273.04,3555.90,500.05,491.03,34.70,0000 0000 0000 0000 000000
2014-06-27 00:29:32,0.01,0.22,0.00,22.80,26.74,29.44,9.46,38.59,1004.42,2043.02,3380.04,3273.01,3555.49,500.43,491.60,34.74,0000 0000 0000 0000 000000
2014-06-27 00:34:33,0.00,0.22,0.00,22.80,26.75,29.42,9.47,38.64,1004.42,2043.02,3380.00,3273.00,3555.17,500.24,491.21,34.78,0000 0000 0000 0000 000000
2014-06-27 00:39:34,-0.01,0.22,0.00,22.81,26.75,29.41,9.52,38.68,1004.42,2043.01,3380.00,3273.00,3555.26,499.63,490.84,34.82,0000 0000 0000 0000 000000
2014-06-27 00:44:35,0.00,0.22,0.00,22.79,26.75,29.39,9.43,38.49,1004.43,2043.01,3380.00,3273.01,3555.32,499.90,491.02,34.87,0000 0000 0000 0000 000000
2014-06-27 00:49:37,0.00,0.22,0.00,22.84,26.75,29.39,9.49,38.72,1004.42,2043.02,3380.00,3273.00,3555.10,500.13,491.21,34.91,0000 0000 0000 0000 000000
2014-06-27 00:54:38,0.00,0.22,0.00,22.84,26.75,29.41,9.45,38.98,1004.41,2043.02,3380.00,3273.00,3555.04,499.67,490.74,34.95,0000 0000 0000 0000 000000
2014-06-27 00:59:38,-0.00,0.22,0.00,22.84,26.75,29.41,9.47,39.00,1004.41,2043.01,3379.98,3273.00,3555.03,500.11,491.04,34.99,0000 0000 0000 0000 000000
2014-06-27 01:04:39,-0.00,0.22,0.00,22.85,26.75,29.39,9.46,39.05,1004.41,2043.02,3379.98,3273.00,3555.01,499.87,490.91,35.03,0000 0000 0000 0000 000000
2014-06-27 01:09:40,0.00,0.22,0.00,22.86,26.76,29.37,9.43,38.97,1004.41,2043.03,3379.96,3272.99,3555.00,499.98,490.97,35.07,0000 0000 0000 0000 000000
2014-06-27 01:14:42,0.00,0.22,0.00,22.84,26.77,29.37,9.53,39.17,1004.41,2043.01,3379.90,3272.99,3555.00,499.94,490.98,35.12,0000 0000 0000 0000 000000
2014-06-27 01:19:42,0.00,0.22,0.00,22.88,26.77,29.36,9.45,39.06,1004.41,2043.01,3379.75,3272.99,3555.00,500.10,491.06,35.16,0000 0000 0000 0000 000000
2014-06-27 01:24:43,0.00,0.22,0.00,22.90,26.77,29.38,9.47,39.02,1004.41,2043.03,3379.80,3272.98,3555.00,500.00,490.80,35.20,0000 0000 0000 0000 000000
2014-06-27 01:29:44,0.00,0.22,0.00,22.88,26.77,29.39,9.48,38.92,1004.41,2043.05,3379.74,3272.98,3555.00,499.76,490.60,35.24,0000 0000 0000 0000 000000
2014-06-27 01:34:45,0.01,0.22,0.00,22.85,26.77,29.38,9.47,38.87,1004.41,2043.05,3379.27,3272.97,3555.00,500.13,491.07,35.28,0000 0000 0000 0000 000000
2014-06-27 01:39:47,-0.00,0.22,0.00,22.88,26.77,29.38,9.47,38.86,1004.41,2043.03,3379.08,3272.94,3554.99,499.64,490.59,35.32,0000 0000 0000 0000 000000
2014-06-27 01:44:48,0.00,0.22,0.00,22.88,26.77,29.38,9.43,38.79,1004.41,2043.02,3379.05,3272.94,3554.98,499.76,490.80,35.37,0000 0000 0000 0000 000000
2014-06-27 01:49:49,0.00,0.22,0.00,22.89,26.77,29.41,9.49,38.65,1004.41,2043.02,3379.04,3272.94,3554.99,499.90,490.99,35.41,0000 0000 0000 0000 000000
2014-06-27 01:54:50,0.00,0.22,0.00,22.86,26.77,29.41,9.42,38.56,1004.41,2043.04,3379.07,3272.93,3554.97,499.91,491.03,35.45,0000 0000 0000 0000 000000
2014-06-27 01:59:51,0.01,0.22,0.00,22.87,26.78,29.40,9.47,38.57,1004.41,2043.04,3379.03,3272.75,3554.89,499.72,490.69,35.49,0000 0000 0000 0000 000000
2014-06-27 02:04:52,0.02,0.22,0.00,22.89,26.79,29.39,9.45,38.42,1004.41,2043.03,3379.00,3272.20,3554.46,499.73,490.75,35.53,0000 0000 0000 0000 000000
2014-06-27 02:09:53,0.00,0.22,0.00,22.90,26.80,29.40,9.52,38.46,1004.41,2043.03,3378.99,3272.11,3554.23,500.03,491.15,35.57,0000 0000 0000 0000 000000
2014-06-27 02:14:54,0.00,0.22,0.00,22.92,26.80,29.42,9.43,38.51,1004.41,2043.03,3378.96,3272.10,3554.16,499.51,490.30,35.62,0000 0000 0000 0000 000000
2014-06-27 02:19:56,0.02,0.22,0.00,22.89,26.80,29.44,9.47,38.33,1004.41,2043.04,3378.12,3271.99,3553.99,500.04,490.79,35.66,0000 0000 0000 0000 000000
2014-06-27 02:24:57,-0.00,0.22,0.00,22.84,26.80,29.45,9.54,38.52,1004.40,2043.05,3377.98,3271.96,3553.93,500.07,491.10,35.70,0000 0000 0000 0000 000000
2014-06-27 02:29:58,-0.00,0.22,0.00,22.87,26.80,29.42,9.49,38.29,1004.38,2043.04,3377.99,3271.96,3553.90,500.02,491.07,35.74,0000 0000 0000 0000 000000
2014-06-27 02:34:59,0.03,0.22,0.00,22.89,26.80,29.40,9.45,38.41,1004.38,2043.03,3377.75,3271.70,3553.58,499.97,491.04,35.78,0000 0000 0000 0000 000000
2014-06-27 02:40:00,0.03,0.23,0.00,22.92,26.80,29.44,9.47,38.40,1004.33,2043.02,3377.02,3271.02,3553.01,500.32,491.18,35.82,0000 0000 0000 0000 000000
2014-06-27 02:45:01,0.00,0.23,0.00,22.85,26.80,29.45,9.52,38.37,1004.35,2043.01,3376.97,3270.99,3552.98,499.80,490.67,35.87,0000 0000 0000 0000 000000
2014-06-27 02:50:02,0.00,0.23,0.00,22.85,26.80,29.44,9.45,38.33,1004.29,2043.01,3376.85,3270.98,3552.92,500.05,490.94,35.91,0000 0000 0000 0000 000000
2014-06-27 02:55:04,-0.00,0.23,0.00,22.91,26.80,29.42,9.54,38.57,1004.34,2043.00,3376.78,3270.97,3552.86,500.08,491.04,35.95,0000 0000 0000 0000 000000
2014-06-27 03:00:05,0.48,0.24,0.00,22.90,26.81,29.41,9.52,38.35,1004.34,2043.01,3372.16,3267.04,3548.68,499.92,490.82,35.99,0000 0000 0000 0000 000000
2014-06-27 03:05:06,0.23,0.26,0.00,22.93,26.81,29.41,9.39,38.33,1004.35,2043.00,3364.46,3260.54,3542.10,499.92,490.63,36.03,0000 0000 0000 0000 000000
2014-06-27 03:10:07,0.03,0.26,0.00,22.91,26.82,29.42,9.49,38.41,1004.41,2043.01,3363.79,3260.07,3541.60,500.10,490.97,36.07,0000 0000 0000 0000 000000
2014-06-27 03:15:08,0.28,0.27,0.00,22.90,26.82,29.41,9.50,38.61,1004.41,2043.02,3359.52,3257.00,3538.07,500.47,491.31,36.12,0000 0000 0000 0000 000000
2014-06-27 03:20:09,0.12,0.27,0.00,22.95,26.82,29.41,9.43,38.44,1004.41,2043.00,3356.78,3255.20,3536.11,499.95,490.52,36.16,0000 0000 0000 0000 000000
2014-06-27 03:25:10,0.25,0.28,0.00,22.91,26.82,29.41,9.47,38.31,1004.42,2043.00,3352.16,3251.91,3532.58,500.01,490.82,36.20,0000 0000 0000 0000 000000
2014-06-27 03:30:11,0.30,0.30,0.00,22.88,26.82,29.41,9.40,38.06,1004.41,2043.00,3346.55,3248.09,3528.53,499.62,490.60,36.24,0000 0000 0000 0000 000000
2014-06-27 03:35:12,0.11,0.30,0.00,22.89,26.82,29.41,9.46,37.96,1004.42,2043.00,3343.78,3246.27,3526.48,500.03,490.81,36.28,0000 0000 0000 0000 000000
2014-06-27 03:40:14,0.07,0.31,0.00,22.91,26.82,29.42,9.50,37.98,1004.42,2043.00,3342.13,3245.06,3525.10,499.99,490.81,36.32,0000 0000 0000 0000 000000
2014-06-27 03:45:15,0.00,0.31,0.00,22.91,26.82,29.41,9.44,38.33,1004.41,2043.00,3342.00,3245.00,3525.00,499.96,490.77,36.36,0000 0000 0000 0000 000000
2014-06-27 03:50:15,0.06,0.31,0.00,22.91,26.82,29.41,9.53,38.43,1004.41,2043.00,3341.31,3244.50,3524.49,500.08,490.92,36.41,0000 0000 0000 0000 000000
2014-06-27 03:55:17,0.00,0.31,0.00,22.90,26.82,29.41,9.48,37.99,1004.41,2043.00,3341.00,3244.04,3524.02,500.00,490.85,36.45,0000 0000 0000 0000 000000
2014-06-27 04:00:18,0.00,0.31,0.00,22.95,26.82,29.41,9.50,38.13,1004.41,2043.00,3340.88,3244.00,3523.98,500.26,490.98,36.49,0000 0000 0000 0000 000000
2014-06-27 04:05:19,0.06,0.31,0.00,22.92,26.82,29.41,9.40,37.79,1004.41,2043.00,3339.86,3243.18,3523.07,499.84,490.79,36.53,0000 0000 0000 0000 000000
2014-06-27 04:10:20,0.17,0.32,0.00,22.90,26.82,29.41,9.41,37.86,1004.41,2043.00,3337.10,3241.51,3521.19,500.26,491.19,36.57,0000 0000 0000 0000 000000
2014-06-27 04:15:21,0.04,0.32,0.00,22.94,26.82,29.41,9.42,37.74,1004.41,2043.00,3335.80,3240.73,3520.29,499.95,490.82,36.61,0000 0000 0000 0000 000000
2014-06-27 04:20:22,0.19,0.33,0.00,22.89,26.82,29.42,9.47,37.64,1004.41,2043.00,3332.93,3238.43,3518.07,500.41,491.40,36.66,0000 0000 0000 0000 000000
2014-06-27 04:25:23,0.10,0.33,0.00,22.86,26.82,29.41,9.45,37.67,1004.42,2043.00,3330.82,3236.86,3516.51,499.86,490.80,36.70,0000 0000 0000 0000 000000
2014-06-27 04:30:25,0.25,0.34,0.00,22.89,26.82,29.41,9.42,37.68,1004.41,2043.00,3327.29,3234.22,3513.63,500.02,490.92,36.74,0000 0000 0000 0000 000000
2014-06-27 04:35:25,0.19,0.35,0.00,22.90,26.82,29.41,9.44,37.89,1004.41,2043.00,3322.97,3231.08,3510.22,499.66,490.57,36.78,0000 0000 0000 0000 000000
2014-06-27 04:40:26,0.01,0.35,0.00,22.90,26.82,29.40,9.44,37.95,1004.40,2043.00,3322.24,3230.71,3509.92,499.87,490.64,36.82,0000 0000 0000 0000 000000
2014-06-27 04:45:28,-0.00,0.35,0.00,22.94,26.82,29.40,9.42,37.92,1004.40,2043.00,3322.26,3230.60,3509.88,500.35,491.17,36.86,0000 0000 0000 0000 000000
2014-06-27 04:50:29,0.01,0.35,0.00,22.90,26.82,29.41,9.44,37.62,1004.41,2043.00,3322.10,3230.63,3509.87,500.14,490.91,36.90,0000 0000 0000 0000 000000
2014-06-27 04:55:30,0.01,0.35,0.00,22.91,26.82,29.41,9.41,37.62,1004.37,2043.00,3322.14,3230.52,3509.74,499.80,490.75,36.95,0000 0000 0000 0000 000000
2014-06-27 05:00:30,-0.01,0.35,0.00,22.94,26.82,29.41,9.50,37.38,1004.41,2043.00,3322.09,3230.52,3509.78,500.22,490.97,36.99,0000 0000 0000 0000 000000
2014-06-27 05:05:31,0.00,0.35,0.00,22.92,26.82,29.42,9.45,37.71,1004.39,2043.00,3322.11,3230.49,3509.75,499.86,490.67,37.03,0000 0000 0000 0000 000000
2014-06-27 05:10:32,-0.01,0.35,0.00,22.92,26.82,29.42,9.44,37.70,1004.39,2043.00,3322.15,3230.64,3509.80,500.13,491.04,37.07,0000 0000 0000 0000 000000
2014-06-27 05:15:33,0.03,0.35,0.00,22.93,26.82,29.41,9.37,37.75,1004.37,2043.00,3322.01,3230.09,3509.12,499.72,490.55,37.11,0000 0000 0000 0000 000000
2014-06-27 05:20:34,0.01,0.35,0.00,22.94,26.83,29.40,9.46,37.58,1004.33,2043.00,3321.72,3230.00,3509.00,499.81,490.71,37.15,0000 0000 0000 0000 000000
2014-06-27 05:25:36,0.01,0.36,0.00,22.95,26.83,29.41,9.50,37.60,1004.19,2043.00,3321.06,3229.99,3508.98,500.06,490.75,37.20,0000 0000 0000 0000 000000
2014-06-27 05:30:37,0.00,0.36,0.00,22.93,26.84,29.41,9.43,37.58,1004.12,2043.00,3321.02,3229.98,3508.98,499.93,490.72,37.24,0000 0000 0000 0000 000000
2014-06-27 05:35:38,0.00,0.36,0.00,22.92,26.84,29.41,9.52,37.52,1004.19,2043.01,3321.05,3229.99,3508.99,500.61,491.30,37.28,0000 0000 0000 0000 000000
2014-06-27 05:40:40,0.00,0.36,0.00,22.91,26.84,29.41,9.45,37.70,1004.26,2043.00,3321.07,3229.99,3508.99,500.15,491.00,37.32,0000 0000 0000 0000 000000
2014-06-27 05:45:41,0.00,0.36,0.00,22.91,26.84,29.41,9.43,37.86,1004.13,2043.00,3321.05,3229.98,3508.98,499.85,490.53,37.36,0000 0000 0000 0000 000000
2014-06-27 05:50:42,0.00,0.36,0.00,22.91,26.85,29.41,9.46,37.80,1004.15,2043.00,3321.07,3229.97,3508.96,499.72,490.48,37.40,0000 0000 0000 0000 000000
2014-06-27 05:55:43,0.00,0.36,0.00,22.93,26.85,29.41,9.33,37.66,1004.29,2043.00,3321.12,3229.98,3508.95,500.18,491.03,37.45,0000 0000 0000 0000 000000
2014-06-27 06:00:44,0.03,0.36,0.00,22.93,26.85,29.41,9.49,37.73,1004.40,2043.00,3320.92,3229.67,3508.47,500.27,491.15,37.49,0000 0000 0000 0000 000000
2014-06-27 06:05:45,0.03,0.36,0.00,22.93,26.85,29.42,9.49,38.23,1004.39,2043.00,3320.10,3229.03,3508.00,500.06,490.98,37.53,0000 0000 0000 0000 000000
2014-06-27 06:10:46,0.00,0.36,0.00,22.93,26.85,29.42,9.51,38.00,1004.38,2043.00,3320.01,3229.00,3507.99,499.64,490.51,37.57,0000 0000 0000 0000 000000
2014-06-27 06:15:47,0.00,0.36,0.00,22.94,26.85,29.42,9.46,37.94,1004.13,2043.00,3320.01,3229.00,3507.98,500.02,490.71,37.61,0000 0000 0000 0000 000000
2014-06-27 06:20:48,0.00,0.36,0.00,22.94,26.85,29.43,9.47,38.17,1004.23,2043.00,3320.01,3229.00,3507.99,499.91,490.67,37.65,0000 0000 0000 0000 000000
2014-06-27 06:25:49,0.00,0.36,0.00,22.97,26.85,29.42,9.44,37.91,1004.31,2043.00,3320.01,3229.00,3507.98,500.24,490.95,37.69,0000 0000 0000 0000 000000
2014-06-27 06:30:50,0.00,0.36,0.00,22.96,26.85,29.43,9.46,37.72,1004.38,2043.00,3320.00,3229.00,3507.98,500.09,491.01,37.74,0000 0000 0000 0000 000000
2014-06-27 06:35:51,0.00,0.36,0.00,22.94,26.85,29.42,9.38,37.66,1004.41,2043.00,3320.01,3229.00,3507.99,499.88,490.66,37.78,0000 0000 0000 0000 000000
2014-06-27 06:40:52,0.00,0.36,0.00,22.92,26.85,29.42,9.43,37.62,1004.41,2043.00,3320.03,3229.00,3507.98,500.02,490.78,37.82,0000 0000 0000 0000 000000
2014-06-27 06:45:53,0.00,0.36,0.00,22.94,26.85,29.42,9.43,37.74,1004.41,2042.99,3320.01,3229.00,3507.97,499.68,490.50,37.86,0000 0000 0000 0000 000000
2014-06-27 06:50:54,0.00,0.36,0.00,22.93,26.85,29.42,9.48,37.62,1004.41,2042.99,3320.02,3229.00,3507.97,500.13,490.97,37.90,0000 0000 0000 0000 000000
2014-06-27 06:55:55,0.00,0.36,0.00,22.92,26.85,29.43,9.56,37.74,1004.41,2042.99,3320.01,3229.00,3507.95,500.28,491.17,37.94,0000 0000 0000 0000 000000
2014-06-27 07:00:56,0.00,0.36,0.00,22.93,26.86,29.43,9.49,37.76,1004.41,2042.99,3320.02,3229.00,3507.97,500.43,491.27,37.99,0000 0000 0000 0000 000000
2014-06-27 07:05:58,0.00,0.36,0.00,22.93,26.87,29.42,9.41,38.07,1004.41,2042.99,3320.03,3229.00,3507.97,500.04,490.88,38.03,0000 0000 0000 0000 000000
2014-06-27 07:10:59,0.05,0.36,0.00,22.93,26.87,29.42,9.43,38.36,1004.41,2042.98,3319.62,3228.56,3507.23,500.24,491.05,38.07,0000 0000 0000 0000 000000
2014-06-27 07:16:00,0.07,0.36,0.00,22.96,26.87,29.43,9.47,38.30,1004.41,2042.98,3318.40,3227.59,3506.26,500.17,490.88,38.11,0000 0000 0000 0000 000000
2014-06-27 07:21:01,0.04,0.36,0.00,22.95,26.87,29.44,9.49,37.74,1004.41,2042.98,3317.08,3226.94,3505.35,499.95,490.72,38.15,0000 0000 0000 0000 000000
2014-06-27 07:26:02,0.04,0.37,0.00,22.96,26.87,29.44,9.42,37.87,1004.41,2042.96,3316.09,3226.11,3504.88,500.26,490.99,38.19,0000 0000 0000 0000 000000
2014-06-27 07:31:03,0.00,0.37,0.00,22.95,26.87,29.44,9.47,37.85,1004.41,2042.93,3316.01,3226.02,3504.74,500.18,490.96,38.24,0000 0000 0000 0000 000000
2014-06-27 07:36:04,0.01,0.37,0.00,22.97,26.87,29.45,9.39,37.93,1004.41,2042.94,3316.00,3226.02,3504.63,499.92,490.65,38.28,0000 0000 0000 0000 000000
2014-06-27 07:41:05,-0.00,0.37,0.00,22.97,26.87,29.44,9.42,37.63,1004.41,2042.93,3316.01,3226.01,3504.54,499.92,490.75,38.32,0000 0000 0000 0000 000000
2014-06-27 07:46:06,-0.00,0.37,0.00,22.95,26.88,29.45,9.49,37.73,1004.41,2042.95,3316.00,3226.03,3504.62,500.44,491.26,38.36,0000 0000 0000 0000 000000
2014-06-27 07:51:07,-0.00,0.37,0.00,22.94,26.89,29.46,9.46,37.61,1004.41,2042.93,3316.01,3226.02,3504.65,500.17,490.98,38.40,0000 0000 0000 0000 000000
2014-06-27 07:56:09,0.00,0.37,0.00,22.97,26.90,29.44,9.50,37.76,1004.41,2042.92,3316.02,3226.01,3504.67,500.40,491.05,38.44,0000 0000 0000 0000 000000
2014-06-27 08:01:10,-0.00,0.37,0.00,22.99,26.90,29.44,9.48,37.77,1004.41,2042.91,3316.01,3226.01,3504.45,500.10,490.81,38.48,0000 0000 0000 0000 000000
2014-06-27 08:06:11,0.01,0.37,0.00,22.96,26.90,29.45,9.40,37.80,1004.43,2042.91,3316.00,3226.00,3504.16,500.03,490.77,38.53,0000 0000 0000 0000 000000
2014-06-27 08:11:12,-0.00,0.37,0.00,22.96,26.90,29.45,9.45,37.83,1004.54,2042.95,3316.00,3226.02,3504.26,500.12,491.02,38.57,0000 0000 0000 0000 000000
2014-06-27 08:16:13,-0.00,0.37,0.00,22.95,26.90,29.45,9.46,37.60,1004.61,2042.97,3316.00,3226.02,3504.36,500.08,491.06,38.61,0000 0000 0000 0000 000000
2014-06-27 08:21:14,0.00,0.37,0.00,22.93,26.90,29.45,9.43,37.76,1004.52,2042.95,3316.00,3226.01,3504.17,499.84,490.70,38.65,0000 0000 0000 0000 000000
2014-06-27 08:26:15,-0.02,0.37,0.00,22.94,26.90,29.46,9.46,37.65,1004.52,2042.82,3316.00,3226.00,3504.06,499.93,490.93,38.69,0000 0000 0000 0000 000000
2014-06-27 08:31:16,-0.00,0.37,0.00,22.95,26.90,29.46,9.46,37.52,1004.58,2042.75,3316.00,3226.00,3504.03,500.17,491.22,38.73,0000 0000 0000 0000 000000
2014-06-27 08:36:17,-0.00,0.37,0.00,22.96,26.90,29.46,9.42,37.78,1004.72,2042.68,3315.97,3226.00,3504.00,499.80,490.75,38.78,0000 0000 0000 0000 000000
2014-06-27 08:41:18,0.00,0.37,0.00,22.97,26.91,29.46,9.49,37.63,1004.70,2042.71,3315.94,3226.00,3504.00,500.10,490.96,38.82,0000 0000 0000 0000 000000
2014-06-27 08:46:19,-0.00,0.37,0.00,22.95,26.92,29.45,9.54,37.89,1004.71,2042.73,3315.95,3225.98,3504.00,500.26,491.32,38.86,0000 0000 0000 0000 000000
2014-06-27 08:51:20,0.02,0.37,0.00,22.98,26.92,29.45,9.39,38.00,1004.69,2042.70,3315.95,3225.98,3504.00,499.53,490.46,38.90,0000 0000 0000 0000 000000
2014-06-27 08:56:22,-0.02,0.37,0.00,22.98,26.92,29.46,9.46,37.82,1004.80,2042.70,3315.97,3225.99,3504.00,499.75,490.64,38.94,0000 0000 0000 0000 000000
2014-06-27 09:01:22,-0.03,0.37,0.00,22.97,26.92,29.47,9.46,37.92,1004.86,2042.54,3315.90,3225.99,3504.00,500.08,491.07,38.98,0000 0000 0000 0000 000000
2014-06-27 09:06:23,0.01,0.37,0.00,22.98,26.92,29.47,9.37,37.89,1004.88,2042.34,3315.87,3225.98,3504.00,499.55,490.61,39.03,0000 0000 0000 0000 000000
2014-06-27 09:11:24,0.02,0.37,0.00,23.00,26.92,29.47,9.44,37.88,1004.89,2042.59,3315.81,3225.98,3504.00,500.04,490.92,39.07,0000 0000 0000 0000 000000
2014-06-27 09:16:25,-0.01,0.37,0.00,22.99,26.92,29.47,9.40,37.88,1004.89,2042.64,3315.89,3225.98,3504.00,499.45,490.45,39.11,0000 0000 0000 0000 000000
2014-06-27 09:21:26,-0.01,0.37,0.00,22.98,26.92,29.48,9.51,37.86,1004.91,2042.39,3315.73,3225.97,3504.00,499.96,491.02,39.15,0000 0000 0000 0000 000000
2014-06-27 09:26:27,-0.02,0.37,0.00,22.96,26.92,29.49,9.41,37.86,1004.90,2042.27,3315.78,3225.97,3504.00,499.66,490.82,39.19,0000 0000 0000 0000 000000
2014-06-27 09:31:28,0.02,0.37,0.00,22.95,26.92,29.48,9.49,37.88,1004.93,2042.32,3315.66,3225.97,3504.00,500.21,491.17,39.23,0000 0000 0000 0000 000000
2014-06-27 09:36:29,-0.00,0.37,0.00,22.93,26.92,29.48,9.51,37.73,1004.92,2042.27,3315.46,3225.98,3503.99,500.02,491.17,39.27,0000 0000 0000 0000 000000
2014-06-27 09:41:30,-0.01,0.37,0.00,22.94,26.93,29.49,9.46,37.58,1004.91,2042.19,3315.29,3225.98,3503.96,500.14,491.10,39.32,0000 0000 0000 0000 000000
2014-06-27 09:46:31,0.00,0.37,0.00,22.92,26.93,29.48,9.38,37.66,1004.90,2042.13,3315.09,3225.87,3503.90,499.62,490.73,39.36,0000 0000 0000 0000 000000
2014-06-27 09:51:32,0.02,0.36,0.00,22.94,26.94,29.49,9.43,37.64,1004.90,2042.09,3315.04,3225.60,3503.53,499.87,490.99,39.40,0000 0000 0000 0000 000000
2014-06-27 09:56:33,0.02,0.37,0.00,22.94,26.94,29.49,9.51,37.88,1004.90,2042.12,3314.91,3225.02,3503.01,499.61,490.69,39.44,0000 0000 0000 0000 000000
2014-06-27 10:01:34,0.00,0.37,0.00,22.94,26.94,29.49,9.39,37.98,1004.90,2042.12,3314.79,3225.01,3503.00,499.71,490.76,39.48,0000 0000 0000 0000 000000
2014-06-27 10:06:35,0.00,0.37,0.00,22.96,26.95,29.49,9.38,37.86,1004.90,2042.09,3314.70,3225.00,3503.00,499.71,490.76,39.52,0000 0000 0000 0000 000000
2014-06-27 10:11:36,0.00,0.37,0.00,22.96,26.95,29.48,9.46,37.88,1004.91,2042.03,3314.29,3225.00,3502.99,500.18,491.13,39.57,0000 0000 0000 0000 000000
2014-06-27 10:16:38,0.00,0.37,0.00,22.95,26.95,29.49,9.45,37.77,1004.93,2042.05,3314.18,3225.00,3502.98,499.90,491.07,39.61,0000 0000 0000 0000 000000
2014-06-27 10:21:39,0.00,0.37,0.00,22.93,26.95,29.49,9.50,37.81,1004.97,2042.02,3314.03,3225.00,3502.93,500.26,491.29,39.65,0000 0000 0000 0000 000000
2014-06-27 10:26:40,0.01,0.37,0.00,22.93,26.95,29.49,9.42,37.85,1005.05,2042.02,3314.00,3225.00,3502.73,499.92,491.08,39.69,0000 0000 0000 0000 000000
2014-06-27 10:31:41,0.00,0.37,0.00,22.93,26.95,29.49,9.48,37.83,1005.11,2042.01,3314.00,3224.99,3502.34,500.35,491.61,39.73,0000 0000 0000 0000 000000
2014-06-27 10:36:42,0.00,0.37,0.00,22.96,26.95,29.50,9.44,37.68,1005.11,2042.03,3313.99,3224.99,3502.24,500.11,491.39,39.77,0000 0000 0000 0000 000000
2014-06-27 10:41:43,0.00,0.37,0.00,22.96,26.95,29.49,9.46,38.03,1005.05,2042.02,3313.97,3224.98,3502.09,500.04,491.14,39.82,0000 0000 0000 0000 000000
2014-06-27 10:46:44,0.00,0.37,0.00,22.97,26.95,29.50,9.48,37.86,1005.25,2042.03,3313.97,3224.99,3502.05,499.92,491.20,39.86,0000 0000 0000 0000 000000
2014-06-27 10:51:45,-0.00,0.37,0.00,22.93,26.96,29.50,9.55,38.46,1005.33,2042.03,3313.94,3224.98,3502.02,500.31,491.66,39.90,0000 0000 0000 0000 000000
2014-06-27 10:56:46,0.01,0.37,0.00,22.92,26.96,29.50,9.51,38.47,1005.37,2042.06,3313.86,3224.99,3502.01,500.33,491.47,39.94,0000 0000 0000 0000 000000
2014-06-27 11:01:47,0.01,0.37,0.00,22.92,26.97,29.51,9.46,38.53,1005.36,2042.03,3313.46,3224.97,3502.00,500.25,491.57,39.98,0000 0000 0000 0000 000000
2014-06-27 11:06:49,0.00,0.37,0.00,22.93,26.97,29.50,9.52,38.75,1005.19,2042.03,3313.09,3224.96,3502.00,500.18,491.20,40.02,0000 0000 0000 0000 000000
2014-06-27 11:11:49,0.00,0.37,0.00,22.93,26.97,29.51,9.44,38.68,1005.01,2042.03,3313.01,3224.96,3502.00,500.16,491.33,40.07,0000 0000 0000 0000 000000
2014-06-27 11:16:51,-0.00,0.37,0.00,22.94,26.97,29.51,9.48,38.61,1004.91,2042.01,3313.03,3224.96,3501.99,500.32,491.43,40.11,0000 0000 0000 0000 000000
2014-06-27 11:21:52,0.00,0.37,0.00,22.96,26.97,29.51,9.52,38.98,1004.91,2042.00,3313.03,3224.91,3501.97,500.03,491.22,40.15,0000 0000 0000 0000 000000
2014-06-27 11:26:53,-0.00,0.37,0.00,22.97,26.97,29.51,9.49,38.86,1004.91,2042.01,3313.01,3224.94,3501.96,500.21,491.30,40.19,0000 0000 0000 0000 000000
2014-06-27 11:31:54,0.01,0.37,0.00,22.96,26.97,29.52,9.39,38.84,1005.02,2042.00,3313.00,3224.70,3501.77,499.81,491.01,40.23,0000 0000 0000 0000 000000
2014-06-27 11:36:55,-0.01,0.37,0.00,22.97,26.98,29.52,9.49,38.58,1004.93,2042.01,3313.00,3224.70,3501.72,500.53,491.64,40.27,0000 0000 0000 0000 000000
2014-06-27 11:41:56,0.01,0.37,0.00,22.97,26.99,29.53,9.48,38.77,1004.91,2042.00,3312.99,3224.46,3501.33,499.91,490.83,40.32,0000 0000 0000 0000 000000
2014-06-27 11:46:57,0.01,0.37,0.00,22.97,27.00,29.54,9.47,38.65,1004.90,2042.00,3312.99,3224.49,3501.21,499.93,490.95,40.36,0000 0000 0000 0000 000000
2014-06-27 11:51:59,0.01,0.37,0.00,22.99,27.00,29.53,9.49,38.55,1004.90,2042.00,3312.96,3224.17,3501.02,500.02,491.01,40.40,0000 0000 0000 0000 000000
2014-06-27 11:56:59,0.00,0.37,0.00,22.99,27.00,29.54,9.46,38.52,1004.91,2042.00,3312.95,3224.19,3501.03,500.08,491.23,40.44,0000 0000 0000 0000 000000
2014-06-27 12:02:00,0.01,0.37,0.00,23.00,27.01,29.56,9.43,38.38,1005.12,2042.00,3312.82,3224.14,3501.01,499.57,490.68,40.48,0000 0000 0000 0000 000000
2014-06-27 12:07:02,0.01,0.37,0.00,22.99,27.02,29.57,9.49,38.41,1005.37,2042.00,3312.43,3224.01,3501.00,500.19,491.24,40.52,0000 0000 0000 0000 000000
2014-06-27 12:12:02,0.00,0.37,0.00,22.93,27.02,29.56,9.45,38.48,1005.39,2042.00,3312.03,3224.00,3500.99,500.12,491.51,40.57,0000 0000 0000 0000 000000
2014-06-27 12:17:04,0.00,0.37,0.00,22.94,27.02,29.58,9.44,38.57,1005.37,2041.99,3312.04,3224.00,3500.99,499.86,490.98,40.61,0000 0000 0000 0000 000000
2014-06-27 12:22:05,0.00,0.37,0.00,22.94,27.03,29.58,9.45,38.88,1005.39,2041.99,3312.03,3224.00,3500.97,500.07,491.30,40.65,0000 0000 0000 0000 000000
2014-06-27 12:27:06,0.00,0.37,0.00,22.95,27.05,29.59,9.48,38.64,1005.39,2041.99,3312.01,3224.00,3500.95,500.19,491.54,40.69,0000 0000 0000 0000 000000
2014-06-27 12:32:07,0.00,0.37,0.00,22.92,27.05,29.60,9.49,38.66,1005.39,2041.99,3312.00,3224.00,3500.75,499.65,490.95,40.73,0000 0000 0000 0000 000000
2014-06-27 12:37:08,0.00,0.37,0.00,22.95,27.05,29.60,9.43,38.48,1005.37,2041.98,3312.00,3224.00,3500.21,500.19,491.54,40.77,0000 0000 0000 0000 000000
2014-06-27 12:42:09,0.00,0.37,0.00,22.95,27.06,29.61,9.47,38.73,1005.39,2041.97,3312.00,3223.98,3500.07,500.20,491.59,40.82,0000 0000 0000 0000 000000
2014-06-27 12:47:10,-0.00,0.37,0.00,22.94,27.07,29.62,9.55,38.47,1005.39,2041.98,3312.00,3223.97,3500.01,500.58,491.87,40.86,0000 0000 0000 0000 000000
2014-06-27 12:52:11,-0.00,0.37,0.00,22.93,27.07,29.63,9.45,38.63,1005.39,2041.96,3311.99,3223.97,3500.00,499.78,491.15,40.90,0000 0000 0000 0000 000000
2014-06-27 12:57:12,-0.00,0.37,0.00,22.93,27.08,29.64,9.50,38.48,1005.40,2041.90,3311.97,3223.96,3500.00,500.26,491.62,40.94,0000 0000 0000 0000 000000
2014-06-27 13:02:13,-0.00,0.37,0.00,22.90,27.10,29.64,9.48,38.43,1005.40,2041.88,3311.89,3223.87,3500.00,500.23,491.49,40.98,0000 0000 0000 0000 000000